Location: Newark
(43.0000°N, 1.6781°W)
Time: 16:21:54
(UTC+00:00)

A-11 Canister half - Visible Passes

Search period start: 11 April 2021 00:00
Search period end: 21 April 2021 00:00
Orbit: 1515 x 1685 km, 47.2° (Epoch: 10 April)

Date Brightness Start Highest point End Pass type
(mag) Time Alt. Az. Time Alt. Az. Time Alt. Az.
11 Apr 9.2 02:03:48 36° W 02:08:32 70° N 02:18:38 10° E visible
11 Apr 9.2 04:04:19 10° WNW 04:14:19 83° NNE 04:24:33 10° ESE visible
11 Apr 9.4 23:43:14 50° ENE 23:43:14 50° ENE 23:50:06 10° ENE visible
12 Apr 9.2 01:41:21 39° W 01:45:33 71° N 01:55:38 10° ENE visible
12 Apr 9.2 03:41:23 10° WNW 03:51:21 81° NNE 04:01:34 10° ESE visible
12 Apr11.021:22:32ENE21:22:32ENE21:04:14Svisible
12 Apr 9.5 23:20:38 46° E 23:20:38 46° E 23:27:08 10° ENE visible
13 Apr 9.1 01:18:45 42° W 01:22:34 72° N 01:32:37 10° ENE visible
13 Apr 9.2 03:18:26 10° WNW 03:28:22 80° NNE 03:38:34 10° ESE visible
13 Apr 10.4 20:43:43 10° S 20:59:41 - ENE 20:45:00 14° S visible
13 Apr 9.5 22:57:46 45° E 22:57:46 45° E 23:04:09 10° ENE visible
14 Apr 9.1 00:55:50 43° W 00:59:34 72° N 01:09:37 10° ENE visible
14 Apr 9.2 02:55:29 10° WNW 03:05:23 78° NNE 03:15:34 10° ESE visible
14 Apr 9.9 20:21:14 10° S 20:36:15 - ENE 20:26:39 22° SE visible
14 Apr 9.3 22:22:09 10° SW 22:34:14 49° E 22:41:11 10° ENE visible
15 Apr 9.1 00:32:12 38° W 00:36:36 73° N 00:46:37 10° ENE visible
15 Apr 9.2 02:32:33 10° WNW 02:42:24 77° NNE 02:52:34 10° E visible
15 Apr 9.2 04:37:43 10° WNW 04:47:26 60° SW 04:57:21 10° SE visible
15 Apr 9.9 19:58:47 10° S 20:05:08 21° SE 20:11:36 10° E visible
15 Apr 8.8 21:59:20 10° SW 22:08:35 64° SE 22:18:13 10° ENE visible
16 Apr 9.1 00:04:00 10° W 00:13:37 74° NNW 00:23:37 10° ENE visible
16 Apr 9.2 02:09:36 10° WNW 02:19:25 75° NNE 02:29:33 10° E visible
16 Apr 9.2 04:14:46 10° WNW 04:24:31 63° SW 04:34:28 10° SE visible
16 Apr 10.0 19:36:23 10° SSE 19:42:20 19° SE 19:48:23 10° E visible
16 Apr 8.9 21:36:31 10° SW 21:45:42 61° SE 21:55:14 10° ENE visible
16 Apr 9.1 23:41:05 10° W 23:50:39 75° NNW 00:00:37 10° ENE visible
17 Apr 9.2 01:46:39 10° WNW 01:56:27 74° NNE 02:06:33 10° E visible
17 Apr 9.1 03:51:50 10° WNW 04:01:36 66° SW 04:11:35 10° SE visible
17 Apr 10.1 19:14:02 10° SSE 19:19:33 17° SE 19:25:07 10° E visible
17 Apr 8.9 21:13:44 10° SW 21:22:49 58° SE 21:32:15 10° ENE visible
17 Apr 9.0 23:18:08 10° W 23:27:40 77° NNW 23:37:38 10° ENE visible
18 Apr 9.2 01:23:44 10° WNW 01:33:27 73° N 01:43:31 10° E visible
18 Apr 9.0 03:28:53 10° WNW 03:38:40 69° SSW 03:48:42 10° SE visible
18 Apr 9.0 20:50:56 10° SW 20:59:57 55° SE 21:09:16 10° ENE visible
18 Apr 9.0 22:55:12 10° WSW 23:04:43 78° NNW 23:14:38 10° ENE visible
19 Apr 9.2 01:00:47 10° WNW 01:10:28 72° N 01:20:31 10° E visible
19 Apr 9.0 03:05:58 10° WNW 03:15:45 71° SSW 03:25:48 10° SE visible
19 Apr 9.1 20:28:09 10° SSW 20:37:04 52° SE 20:46:18 10° ENE visible
19 Apr 9.0 22:32:16 10° WSW 22:41:46 80° NNW 22:51:39 10° ENE visible
20 Apr 9.2 00:37:50 10° WNW 00:47:30 71° N 00:57:30 10° E visible
20 Apr 9.0 02:43:02 10° WNW 02:52:49 74° SSW 03:02:53 10° SE visible
20 Apr 9.1 20:05:24 10° SSW 20:14:13 50° SE 20:23:19 10° ENE visible
20 Apr 9.0 22:09:20 10° WSW 22:18:48 82° NNW 22:28:40 10° ENE visible
